Ypsilanti, MI

6:32 PM EST on February 08, 2016 (GMT -0500)
Willow Run

Weather History for KYIP - September, 2013

Change the Weather History Date:

Thursday, September 5, 2013

  Actual Average Record
Temperature  
Mean Temperature 65 °F -  
Max Temperature 75 °F 79 °F 96 °F (2014)
Min Temperature 55 °F 57 °F 44 °F (1974)
Growing Degree Days 15 (Base 50)    
Moisture  
Dew Point 52 °F    
Average Humidity 64    
Maximum Humidity 83    
Minimum Humidity 34    
Precipitation  
Precipitation 0.01 in - - ()
Sea Level Pressure  
Sea Level Pressure 30.18 in    
Wind  
Wind Speed 7 mph (NNW)    
Max Wind Speed 10 mph    
Max Gust Speed -    
Visibility 10 miles    
Events      
Averages and records for this station are not official NWS values.
T = Trace of Precipitation, MM = Missing Value Source: NWS Daily Summary

Daily Weather History Graph

Daily Weather History Graph

Search for Another Location

Airport or City:

Trip Planner

Search our weather history database for the weather conditions in past years. The results will help you decide how hot, cold, wet, or windy it might be!

Date:

Astronomy

Sep. 05, 2013 Rise Set
Actual Time 7:03 AM EDT 8:00 PM EDT
Civil Twilight 6:35 AM EDT 8:29 PM EDT
Nautical Twilight 6:01 AM EDT 9:03 PM EDT
Astronomical Twilight 5:25 AM EDT 9:38 PM EDT
Moon 7:15 AM EDT (9/5) 7:50 PM EDT (9/5)
Length of Visible Light 13h 53m
Length of Day
12h 56m
New Moon, 0% of the Moon is Illuminated
Sep 5
New Moon
Sep 12
First Quarter
Sep 19
Full
Sep 26
Last Quarter
Oct 4
New

Hourly Weather History & Observations

Time (EDT) Temp. Dew Point Humidity Pressure Visibility Wind Dir Wind Speed Gust Speed Precip Events Conditions
12:07 AM 69.8 °F 60.8 °F 73% 30.09 in 10.0 mi WNW 9.2 mph - N/A   Scattered Clouds
12:41 AM 69.8 °F 60.8 °F 73% 30.10 in 10.0 mi WNW 5.8 mph - N/A   Mostly Cloudy
12:53 AM 68.0 °F 60.1 °F 76% 30.08 in 10.0 mi WNW 5.8 mph - N/A   Mostly Cloudy
1:00 AM 66.2 °F 60.8 °F 83% 30.10 in 10.0 mi WNW 6.9 mph - N/A   Scattered Clouds
1:14 AM 68.0 °F 60.8 °F 78% 30.10 in 10.0 mi NW 6.9 mph - N/A   Mostly Cloudy
1:24 AM 66.2 °F 59.0 °F 78% 30.10 in 10.0 mi NW 4.6 mph - N/A   Scattered Clouds
1:53 AM 66.9 °F 60.1 °F 79% 30.09 in 10.0 mi NW 5.8 mph - N/A   Mostly Cloudy
2:53 AM 66.9 °F 57.9 °F 73% 30.10 in 10.0 mi NW 5.8 mph - N/A   Overcast
3:53 AM 64.0 °F 57.0 °F 78% 30.11 in 10.0 mi NNW 6.9 mph - N/A   Clear
4:53 AM 62.1 °F 55.0 °F 78% 30.14 in 10.0 mi NNW 8.1 mph - N/A   Clear
5:53 AM 60.1 °F 54.0 °F 80% 30.15 in 10.0 mi NW 8.1 mph - N/A   Clear
6:53 AM 59.0 °F 52.0 °F 78% 30.18 in 10.0 mi NNW 8.1 mph - N/A   Clear
7:53 AM 57.9 °F 52.0 °F 81% 30.20 in 10.0 mi NNW 6.9 mph - N/A   Clear
8:02 AM 57.2 °F 51.8 °F 82% 30.22 in 10.0 mi NNW 8.1 mph - 0.01 in   Partly Cloudy
8:53 AM 60.1 °F 51.1 °F 72% 30.22 in 10.0 mi NNW 10.4 mph - 0.01 in   Clear
9:53 AM 63.0 °F 48.9 °F 60% 30.22 in 10.0 mi North 8.1 mph - N/A   Unknown
10:53 AM 66.0 °F 46.0 °F 48% 30.24 in 10.0 mi NNW 8.1 mph - N/A   Clear
11:53 AM 68.0 °F 46.0 °F 45% 30.24 in 10.0 mi North 5.8 mph - N/A   Clear
12:53 PM 70.0 °F 46.0 °F 42% 30.24 in 10.0 mi NNW 9.2 mph - N/A   Clear
1:53 PM 72.0 °F 46.9 °F 41% 30.24 in 10.0 mi North 6.9 mph - N/A   Clear
2:53 PM 73.0 °F 43.0 °F 34% 30.23 in 10.0 mi Variable 6.9 mph - N/A   Clear
3:53 PM 73.9 °F 45.0 °F 35% 30.22 in 10.0 mi North 9.2 mph - N/A   Clear
4:53 PM 73.9 °F 46.0 °F 37% 30.22 in 10.0 mi NNE 5.8 mph - N/A   Clear
5:53 PM 73.0 °F 46.9 °F 39% 30.22 in 10.0 mi NW 9.2 mph - N/A   Clear
6:53 PM 71.1 °F 46.9 °F 42% 30.22 in 10.0 mi NNW 6.9 mph - N/A   Clear
7:53 PM 66.0 °F 48.9 °F 54% 30.22 in 10.0 mi NNW 5.8 mph - N/A   Clear
8:53 PM 61.0 °F 51.1 °F 70% 30.24 in 10.0 mi East 5.8 mph - N/A   Clear
9:53 PM 60.1 °F 50.0 °F 69% 30.25 in 10.0 mi ENE 8.1 mph - N/A   Clear
10:53 PM 57.0 °F 48.9 °F 74% 30.27 in 10.0 mi ENE 5.8 mph - N/A   Clear
11:53 PM 55.9 °F 48.0 °F 75% 30.27 in 10.0 mi NE 5.8 mph - N/A   Clear